Terminal Aerodrome Forecast
Issued by NWS Greer, SC

Home | Current Version | Previous Version | Text Only | Print | Product List | Glossary On
Versions: 1 2 3 4 5 6 7 8 9 10 11 12 13 14 15 16 17 18 19 20 21 22 23 24 25 26 27 28 29 30 31 32 33 34 35 36 37 38 39 40 41 42 43 44 45 46 47 48 49 50
000
FTUS42 KGSP 190254 AAA
TAFCLT
TAF AMD
KCLT 190254Z 1903/1924 17005KT P6SM VCSH BKN040 BKN100
     FM190500 11005KT 6SM BR VCSH OVC025
     FM190700 12006KT 4SM BR VCSH OVC012
     FM191000 11008KT 4SM SHRA BR OVC008
     FM191400 14012G20KT 2SM SHRA BR OVC005 PROB30 1916/1922 4SM
      TSRA OVC008CB=

USA.gov is the U.S. government's official web portal to all federal, state and local government web resources and services.